PGT1548 LTFJ-LTCM

Flight info

Callsign PGT1548
Flight time 1h 10m
Altitude 33000
Route EKAWE UT641 ABSAX UN743 GAKSU UT310 ATNOP
Aircraft A20N/M-SDE2E3FGHIRWXY/LB1

Departure

Time 2026-04-22 11:00
Airport Istanbul Sabiha Gökçen International Airport (LTFJ)

Arrival

Time 2026-04-22 12:11
Airport Sinop Airport (LTCM)
Time Latitude Longitude Altitude Speed Heading
2026-04-22 10:22 40.90828 29.32237 321 ft 0 kts 333°
2026-04-22 10:45 40.90828 29.32238 321 ft 0 kts 333°
2026-04-22 10:45 40.90818 29.32244 321 ft 0 kts 332°
2026-04-22 10:45 40.90808 29.32251 321 ft 2 kts 323°
2026-04-22 10:46 40.90797 29.32264 321 ft 2 kts 309°
2026-04-22 10:46 40.90789 29.32280 321 ft 2 kts 296°
2026-04-22 10:46 40.90783 29.32299 321 ft 2 kts 283°
2026-04-22 10:46 40.90781 29.32318 321 ft 2 kts 270°
2026-04-22 10:47 40.90783 29.32338 321 ft 2 kts 256°
2026-04-22 10:47 40.90787 29.32354 321 ft 0 kts 245°
2026-04-22 10:47 40.90790 29.32362 321 ft 0 kts 242°
2026-04-22 10:47 40.90790 29.32363 321 ft 0 kts 242°
2026-04-22 10:49 40.90790 29.32362 321 ft 0 kts 242°
2026-04-22 10:50 40.90785 29.32348 321 ft 2 kts 243°
2026-04-22 10:50 40.90771 29.32314 321 ft 5 kts 243°
2026-04-22 10:50 40.90751 29.32259 321 ft 7 kts 244°
2026-04-22 10:50 40.90725 29.32187 321 ft 9 kts 245°
2026-04-22 10:51 40.90697 29.32109 321 ft 9 kts 244°
2026-04-22 10:51 40.90667 29.32026 321 ft 10 kts 245°
2026-04-22 10:51 40.90631 29.31933 321 ft 11 kts 244°
2026-04-22 10:51 40.90597 29.31842 321 ft 11 kts 244°
2026-04-22 10:52 40.90564 29.31752 321 ft 10 kts 243°
2026-04-22 10:52 40.90530 29.31658 321 ft 12 kts 245°
2026-04-22 10:52 40.90494 29.31560 321 ft 10 kts 243°
2026-04-22 10:52 40.90460 29.31468 321 ft 9 kts 245°
2026-04-22 10:53 40.90406 29.31442 321 ft 10 kts 154°
2026-04-22 10:53 40.90334 29.31489 321 ft 11 kts 153°
2026-04-22 10:53 40.90261 29.31462 321 ft 12 kts 241°
2026-04-22 10:53 40.90225 29.31353 321 ft 13 kts 242°
2026-04-22 10:54 40.90183 29.31241 321 ft 14 kts 244°
2026-04-22 10:54 40.90139 29.31121 321 ft 14 kts 244°
2026-04-22 10:54 40.90094 29.30998 321 ft 15 kts 244°
2026-04-22 10:54 40.90047 29.30870 321 ft 15 kts 245°
2026-04-22 10:55 40.89999 29.30738 321 ft 16 kts 242°
2026-04-22 10:55 40.89949 29.30604 321 ft 16 kts 244°
2026-04-22 10:55 40.89898 29.30467 321 ft 16 kts 244°
2026-04-22 10:55 40.89847 29.30329 321 ft 17 kts 244°
2026-04-22 10:56 40.89795 29.30187 321 ft 17 kts 244°
2026-04-22 10:56 40.89742 29.30042 321 ft 17 kts 244°
2026-04-22 10:56 40.89688 29.29898 321 ft 17 kts 244°
2026-04-22 10:56 40.89635 29.29753 321 ft 17 kts 243°
2026-04-22 10:57 40.89581 29.29605 321 ft 17 kts 244°
2026-04-22 10:57 40.89529 29.29455 321 ft 18 kts 246°
2026-04-22 10:57 40.89479 29.29311 321 ft 13 kts 244°
2026-04-22 10:57 40.89427 29.29256 321 ft 8 kts 193°
2026-04-22 10:58 40.89363 29.29275 322 ft 10 kts 154°
2026-04-22 10:58 40.89299 29.29319 322 ft 9 kts 139°
2026-04-22 10:58 40.89288 29.29388 322 ft 8 kts 69°
2026-04-22 10:58 40.89312 29.29450 322 ft 0 kts 64°
2026-04-22 10:59 40.89314 29.29454 321 ft 1 kts 63°
2026-04-22 10:59 40.89319 29.29467 321 ft 2 kts 63°
2026-04-22 10:59 40.89337 29.29518 322 ft 21 kts 63°
2026-04-22 10:59 40.89524 29.30020 322 ft 97 kts 64°
2026-04-22 11:00 40.89908 29.31077 332 ft 153 kts 60°
2026-04-22 11:00 40.90374 29.32379 868 ft 159 kts 60°
2026-04-22 11:00 40.90841 29.33635 1721 ft 151 kts 59°
2026-04-22 11:00 40.91316 29.34902 2219 ft 164 kts 59°
2026-04-22 11:01 40.91841 29.36304 2673 ft 181 kts 60°
2026-04-22 11:01 40.92420 29.37861 3109 ft 201 kts 60°
2026-04-22 11:01 40.93069 29.39617 3575 ft 223 kts 61°
2026-04-22 11:01 40.93768 29.41520 4230 ft 237 kts 62°
2026-04-22 11:02 40.94533 29.43481 4943 ft 248 kts 53°
2026-04-22 11:02 40.95847 29.44969 5624 ft 258 kts 26°
2026-04-22 11:02 40.97506 29.45913 6509 ft 263 kts 20°
2026-04-22 11:02 40.99207 29.46821 7332 ft 271 kts 21°
2026-04-22 11:03 41.00942 29.47817 8134 ft 279 kts 22°
2026-04-22 11:03 41.02718 29.48898 8925 ft 288 kts 22°
2026-04-22 11:03 41.04549 29.50049 9715 ft 296 kts 22°
2026-04-22 11:03 41.06428 29.51242 10472 ft 305 kts 21°
2026-04-22 11:04 41.08387 29.52462 10982 ft 322 kts 21°
2026-04-22 11:04 41.10494 29.53764 11435 ft 341 kts 21°
2026-04-22 11:04 41.12693 29.55126 11846 ft 359 kts 21°
2026-04-22 11:04 41.14992 29.56555 12240 ft 376 kts 21°
2026-04-22 11:05 41.17389 29.58052 12873 ft 385 kts 20°
2026-04-22 11:05 41.19833 29.59585 13631 ft 390 kts 20°
2026-04-22 11:05 41.22294 29.61128 14321 ft 396 kts 19°
2026-04-22 11:05 41.24800 29.62691 15034 ft 401 kts 20°
2026-04-22 11:06 41.27339 29.64278 15759 ft 405 kts 20°
2026-04-22 11:06 41.29875 29.65866 16444 ft 409 kts 20°
2026-04-22 11:06 41.32478 29.67497 17076 ft 414 kts 20°
2026-04-22 11:06 41.35075 29.69128 17699 ft 418 kts 20°
2026-04-22 11:07 41.37712 29.70785 18357 ft 422 kts 20°
2026-04-22 11:07 41.40361 29.72451 18991 ft 426 kts 20°
2026-04-22 11:07 41.43047 29.74141 19524 ft 432 kts 20°
2026-04-22 11:07 41.45772 29.75858 20130 ft 435 kts 19°
2026-04-22 11:08 41.48516 29.77622 20747 ft 440 kts 22°
2026-04-22 11:08 41.50993 29.80123 21254 ft 458 kts 44°
2026-04-22 11:08 41.52783 29.83646 21863 ft 466 kts 59°
2026-04-22 11:08 41.54252 29.87511 22429 ft 470 kts 61°
2026-04-22 11:09 41.55737 29.91362 22903 ft 475 kts 59°
2026-04-22 11:09 41.57360 29.95207 23408 ft 478 kts 57°
2026-04-22 11:09 41.59075 29.98997 23891 ft 481 kts 55°
2026-04-22 11:09 41.60845 30.02798 24383 ft 485 kts 56°
2026-04-22 11:10 41.62528 30.06745 24860 ft 490 kts 59°
2026-04-22 11:10 41.64114 30.10769 25310 ft 494 kts 60°
2026-04-22 11:10 41.65691 30.14848 25743 ft 498 kts 61°
2026-04-22 11:10 41.67281 30.18923 26226 ft 500 kts 60°
2026-04-22 11:11 41.68914 30.23059 26798 ft 500 kts 59°
2026-04-22 11:11 41.70522 30.27114 27465 ft 497 kts 60°
2026-04-22 11:11 41.72145 30.31204 28090 ft 495 kts 59°
2026-04-22 11:11 41.73753 30.35261 28653 ft 495 kts 60°
2026-04-22 11:12 41.75355 30.39304 29170 ft 495 kts 60°
2026-04-22 11:12 41.76955 30.43362 29706 ft 494 kts 59°
2026-04-22 11:12 41.78556 30.47422 30221 ft 494 kts 60°
2026-04-22 11:12 41.80144 30.51459 30732 ft 494 kts 59°
2026-04-22 11:13 41.81735 30.55518 31236 ft 493 kts 59°
2026-04-22 11:13 41.83341 30.59608 31525 ft 494 kts 60°
2026-04-22 11:13 41.84925 30.63651 31789 ft 495 kts 60°
2026-04-22 11:13 41.86518 30.67716 32054 ft 496 kts 60°
2026-04-22 11:14 41.88130 30.71816 32328 ft 496 kts 60°
2026-04-22 11:14 41.89723 30.75861 32598 ft 497 kts 60°
2026-04-22 11:14 41.91330 30.79952 32876 ft 498 kts 60°
2026-04-22 11:14 41.92950 30.84078 33052 ft 499 kts 60°
2026-04-22 11:15 41.94553 30.88166 33061 ft 499 kts 60°
2026-04-22 11:15 41.97779 30.96436 33065 ft 500 kts 61°
2026-04-22 11:16 42.00574 31.04984 33059 ft 501 kts 70°
2026-04-22 11:16 42.02601 31.13882 33059 ft 503 kts 74°
2026-04-22 11:17 42.04480 31.22950 33057 ft 502 kts 74°
2026-04-22 11:17 42.06371 31.31981 33048 ft 503 kts 73°
2026-04-22 11:18 42.08265 31.40983 33042 ft 504 kts 73°
2026-04-22 11:18 42.10170 31.50052 33050 ft 505 kts 73°
2026-04-22 11:19 42.12060 31.59097 33048 ft 506 kts 73°
2026-04-22 11:19 42.13954 31.68187 33038 ft 506 kts 73°
2026-04-22 11:20 42.15847 31.77321 33040 ft 507 kts 73°
2026-04-22 11:20 42.17735 31.86441 33044 ft 508 kts 73°
2026-04-22 11:21 42.19611 31.95589 33044 ft 509 kts 73°
2026-04-22 11:21 42.21491 32.04765 33038 ft 510 kts 73°
2026-04-22 11:22 42.23368 32.13974 33042 ft 509 kts 73°
2026-04-22 11:22 42.25280 32.23123 33041 ft 507 kts 71°
2026-04-22 11:23 42.27368 32.32190 32749 ft 515 kts 70°
2026-04-22 11:23 42.28436 32.36802 32498 ft 515 kts 71°
2026-04-22 11:23 42.29491 32.41382 32251 ft 516 kts 71°
2026-04-22 11:23 42.30555 32.46037 32002 ft 517 kts 71°
2026-04-22 11:24 42.31493 32.50684 31762 ft 517 kts 75°
2026-04-22 11:24 42.32144 32.55445 31508 ft 514 kts 82°
2026-04-22 11:24 42.32467 32.60222 31266 ft 512 kts 88°
2026-04-22 11:24 42.32467 32.65018 31015 ft 508 kts 95°
2026-04-22 11:25 42.32153 32.69717 30748 ft 505 kts 100°
2026-04-22 11:25 42.31638 32.74368 30475 ft 502 kts 102°
2026-04-22 11:25 42.31080 32.78967 30195 ft 499 kts 102°
2026-04-22 11:25 42.30519 32.83556 29921 ft 496 kts 102°
2026-04-22 11:26 42.29974 32.88147 29649 ft 493 kts 102°
2026-04-22 11:26 42.29438 32.92703 29361 ft 491 kts 101°
2026-04-22 11:26 42.28905 32.97258 29088 ft 488 kts 102°
2026-04-22 11:26 42.28390 33.01707 28816 ft 486 kts 101°
2026-04-22 11:27 42.27869 33.06205 28537 ft 483 kts 101°
2026-04-22 11:27 42.27352 33.10667 28271 ft 480 kts 101°
2026-04-22 11:27 42.26843 33.15053 27997 ft 479 kts 102°
2026-04-22 11:27 42.26324 33.19488 27717 ft 476 kts 102°
2026-04-22 11:28 42.25809 33.23870 27455 ft 474 kts 101°
2026-04-22 11:28 42.25295 33.28245 27177 ft 472 kts 101°
2026-04-22 11:28 42.24785 33.32559 26887 ft 469 kts 101°
2026-04-22 11:28 42.24273 33.36888 26583 ft 466 kts 102°
2026-04-22 11:29 42.23761 33.41184 26248 ft 463 kts 102°
2026-04-22 11:29 42.23253 33.45467 25823 ft 460 kts 102°
2026-04-22 11:29 42.22751 33.49682 25374 ft 457 kts 102°
2026-04-22 11:29 42.22251 33.53850 24931 ft 453 kts 102°
2026-04-22 11:30 42.21748 33.58023 24468 ft 450 kts 102°
2026-04-22 11:30 42.21251 33.62143 24029 ft 446 kts 103°
2026-04-22 11:30 42.20755 33.66237 23577 ft 442 kts 103°
2026-04-22 11:30 42.20257 33.70331 23121 ft 438 kts 103°
2026-04-22 11:31 42.19767 33.74341 22653 ft 435 kts 103°
2026-04-22 11:31 42.19280 33.78314 22182 ft 433 kts 103°
2026-04-22 11:31 42.18791 33.82311 21713 ft 429 kts 103°
2026-04-22 11:31 42.18308 33.86233 21254 ft 426 kts 103°
2026-04-22 11:32 42.17820 33.90173 20789 ft 423 kts 103°
2026-04-22 11:32 42.17341 33.94036 20319 ft 419 kts 103°
2026-04-22 11:32 42.16869 33.97845 19861 ft 409 kts 103°
2026-04-22 11:32 42.16404 34.01574 19422 ft 404 kts 103°
2026-04-22 11:33 42.15942 34.05264 18979 ft 401 kts 103°
2026-04-22 11:33 42.15482 34.08941 18546 ft 398 kts 103°
2026-04-22 11:33 42.15020 34.12616 18107 ft 396 kts 103°
2026-04-22 11:33 42.14561 34.16258 17669 ft 393 kts 103°
2026-04-22 11:34 42.14107 34.19867 17226 ft 391 kts 103°
2026-04-22 11:34 42.13654 34.23439 16785 ft 389 kts 103°
2026-04-22 11:34 42.13202 34.27011 16342 ft 386 kts 103°
2026-04-22 11:34 42.12751 34.30562 15891 ft 383 kts 104°
2026-04-22 11:35 42.12309 34.34046 15445 ft 376 kts 104°
2026-04-22 11:35 42.11867 34.37495 15003 ft 374 kts 104°
2026-04-22 11:35 42.11429 34.40903 14569 ft 371 kts 104°
2026-04-22 11:35 42.10987 34.44317 14128 ft 369 kts 104°
2026-04-22 11:36 42.10531 34.47665 13699 ft 367 kts 104°
2026-04-22 11:36 42.10062 34.51033 13273 ft 364 kts 104°
2026-04-22 11:36 42.09595 34.54378 12830 ft 363 kts 104°
2026-04-22 11:36 42.09135 34.57683 12393 ft 361 kts 104°
2026-04-22 11:37 42.08678 34.60962 11912 ft 355 kts 103°
2026-04-22 11:37 42.08236 34.64156 11451 ft 344 kts 103°
2026-04-22 11:37 42.07800 34.67302 11065 ft 338 kts 104°
2026-04-22 11:37 42.07374 34.70366 10754 ft 330 kts 103°
2026-04-22 11:38 42.06958 34.73353 10439 ft 318 kts 104°
2026-04-22 11:38 42.06566 34.76169 10302 ft 302 kts 103°
2026-04-22 11:38 42.05796 34.81663 10072 ft 292 kts 103°
2026-04-22 11:39 42.05425 34.84300 9739 ft 286 kts 104°
2026-04-22 11:39 42.05059 34.86893 9387 ft 276 kts 102°
2026-04-22 11:39 42.04722 34.89371 9051 ft 266 kts 101°
2026-04-22 11:39 42.04400 34.91770 8757 ft 259 kts 101°
2026-04-22 11:40 42.04084 34.94122 8493 ft 254 kts 101°
2026-04-22 11:40 42.03773 34.96437 8269 ft 250 kts 101°
2026-04-22 11:40 42.03466 34.98699 8017 ft 243 kts 101°
2026-04-22 11:40 42.03162 35.00930 8036 ft 242 kts 102°
2026-04-22 11:41 42.02859 35.03182 8026 ft 243 kts 101°
2026-04-22 11:41 42.02556 35.05407 7971 ft 244 kts 101°
2026-04-22 11:41 42.02249 35.07642 7719 ft 241 kts 100°
2026-04-22 11:41 42.02240 35.09869 7438 ft 240 kts 68°
2026-04-22 11:42 42.03168 35.11611 7194 ft 233 kts 31°
2026-04-22 11:42 42.04656 35.12340 6954 ft 229 kts
2026-04-22 11:42 42.06196 35.12003 6700 ft 224 kts 333°
2026-04-22 11:42 42.07393 35.10721 6455 ft 221 kts 305°
2026-04-22 11:43 42.07973 35.08822 6203 ft 222 kts 280°
2026-04-22 11:43 42.08189 35.06774 5962 ft 223 kts 272°
2026-04-22 11:43 42.07847 35.04773 5697 ft 226 kts 240°
2026-04-22 11:43 42.06951 35.03046 5482 ft 226 kts 236°
2026-04-22 11:44 42.06013 35.01324 5306 ft 225 kts 236°
2026-04-22 11:44 42.05099 34.99627 5131 ft 224 kts 236°
2026-04-22 11:44 42.04204 34.97927 4937 ft 225 kts 236°
2026-04-22 11:44 42.03300 34.96209 4767 ft 224 kts 237°
2026-04-22 11:45 42.02223 34.94706 4565 ft 227 kts 207°
2026-04-22 11:45 42.00698 34.94256 4389 ft 227 kts 174°
2026-04-22 11:45 41.99238 34.94936 4215 ft 227 kts 142°
2026-04-22 11:45 41.98233 34.96517 4035 ft 223 kts 112°
2026-04-22 11:46 41.97960 34.98542 3859 ft 220 kts 81°
2026-04-22 11:46 41.98461 35.00433 3684 ft 217 kts 54°
2026-04-22 11:46 41.99342 35.02053 3535 ft 215 kts 52°
2026-04-22 11:46 42.00223 35.03678 3340 ft 213 kts 53°
2026-04-22 11:47 42.01087 35.05296 3175 ft 213 kts 54°
2026-04-22 11:47 42.01937 35.06927 3094 ft 213 kts 56°
2026-04-22 11:47 42.02741 35.08592 3008 ft 214 kts 57°
2026-04-22 11:47 42.03537 35.10284 2849 ft 213 kts 56°
2026-04-22 11:48 42.04328 35.11970 2698 ft 211 kts 56°
2026-04-22 11:48 42.05101 35.13628 2533 ft 209 kts 57°
2026-04-22 11:48 42.05879 35.15292 2379 ft 209 kts 58°
2026-04-22 11:48 42.06651 35.16946 2220 ft 209 kts 56°
2026-04-22 11:49 42.07279 35.18691 2045 ft 209 kts 78°
2026-04-22 11:49 42.07214 35.20633 2014 ft 212 kts 98°
2026-04-22 11:49 42.06918 35.22575 1998 ft 212 kts 100°
2026-04-22 11:49 42.06591 35.24517 1987 ft 212 kts 101°
2026-04-22 11:50 42.06260 35.26459 1989 ft 211 kts 100°
2026-04-22 11:50 42.05941 35.28317 1971 ft 198 kts 100°
2026-04-22 11:50 42.05809 35.30087 1953 ft 190 kts 76°
2026-04-22 11:50 42.06454 35.31596 1984 ft 188 kts 36°
2026-04-22 11:51 42.07658 35.32184 2043 ft 188 kts 360°
2026-04-22 11:51 42.08876 35.31587 2029 ft 186 kts 321°
2026-04-22 11:51 42.09483 35.30127 2010 ft 185 kts 281°
2026-04-22 11:51 42.09246 35.28421 2012 ft 190 kts 247°
2026-04-22 11:52 42.08692 35.26804 1988 ft 189 kts 254°
2026-04-22 11:52 42.08459 35.25135 1969 ft 171 kts 265°
2026-04-22 11:52 42.08340 35.23655 1948 ft 155 kts 267°
2026-04-22 11:52 42.08219 35.22223 1969 ft 154 kts 262°
2026-04-22 11:53 42.07987 35.20820 1988 ft 149 kts 258°
2026-04-22 11:53 42.07740 35.19516 1969 ft 141 kts 256°
2026-04-22 11:53 42.07361 35.18312 1817 ft 141 kts 243°
2026-04-22 11:53 42.06862 35.17182 1619 ft 139 kts 240°
2026-04-22 11:54 42.06351 35.16082 1425 ft 139 kts 239°
2026-04-22 11:54 42.05836 35.14978 1235 ft 139 kts 239°
2026-04-22 11:54 42.05325 35.13883 1047 ft 139 kts 239°
2026-04-22 11:54 42.04824 35.12767 850 ft 139 kts 242°
2026-04-22 11:55 42.04329 35.11652 754 ft 140 kts 237°
2026-04-22 11:55 42.03806 35.10542 630 ft 141 kts 239°
2026-04-22 11:55 42.03270 35.09444 472 ft 140 kts 238°
2026-04-22 11:55 42.02719 35.08364 363 ft 139 kts 237°
2026-04-22 11:56 42.02169 35.07294 339 ft 139 kts 235°
2026-04-22 11:56 42.01582 35.06256 271 ft 139 kts 236°
2026-04-22 11:56 42.01017 35.05034 615 ft 162 kts 252°
2026-04-22 11:56 42.01035 35.03632 1501 ft 153 kts 288°
2026-04-22 11:57 42.01305 35.02296 2341 ft 154 kts 278°
2026-04-22 11:57 42.01309 35.00865 2981 ft 159 kts 271°
2026-04-22 11:57 42.01328 34.99246 3254 ft 191 kts 272°
2026-04-22 11:57 42.01344 34.97348 3056 ft 211 kts 272°
2026-04-22 11:58 42.01374 34.95379 2693 ft 215 kts 273°
2026-04-22 11:58 42.01590 34.93431 2526 ft 208 kts 297°
2026-04-22 11:58 42.02538 34.91994 2506 ft 213 kts 334°
2026-04-22 11:58 42.04018 34.91664 2902 ft 221 kts
2026-04-22 11:59 42.05402 34.92456 3081 ft 220 kts 42°
2026-04-22 11:59 42.06181 34.94183 3081 ft 221 kts 78°
2026-04-22 11:59 42.06048 34.96240 3089 ft 225 kts 111°
2026-04-22 11:59 42.05409 34.98153 3090 ft 226 kts 113°
2026-04-22 12:00 42.04784 35.00082 3083 ft 226 kts 112°
2026-04-22 12:00 42.04163 35.02029 3086 ft 226 kts 112°
2026-04-22 12:00 42.03536 35.03985 3085 ft 226 kts 112°
2026-04-22 12:00 42.02985 35.05954 3080 ft 224 kts 100°
2026-04-22 12:01 42.02939 35.08012 3083 ft 221 kts 78°
2026-04-22 12:01 42.03478 35.09920 3085 ft 219 kts 57°
2026-04-22 12:01 42.04352 35.11623 3093 ft 222 kts 53°
2026-04-22 12:01 42.05264 35.13304 3089 ft 222 kts 53°
2026-04-22 12:02 42.06177 35.14992 3084 ft 223 kts 53°
2026-04-22 12:02 42.07071 35.16666 3072 ft 223 kts 54°
2026-04-22 12:02 42.07742 35.18555 2957 ft 225 kts 76°
2026-04-22 12:02 42.07832 35.20652 2833 ft 226 kts 95°
2026-04-22 12:03 42.07595 35.22758 2727 ft 226 kts 98°
2026-04-22 12:03 42.07324 35.24834 2599 ft 226 kts 98°
2026-04-22 12:03 42.07060 35.26906 2485 ft 225 kts 98°
2026-04-22 12:03 42.06806 35.28980 2359 ft 222 kts 97°
2026-04-22 12:04 42.06596 35.31009 2167 ft 215 kts 89°
2026-04-22 12:04 42.06855 35.32898 2026 ft 204 kts 64°
2026-04-22 12:04 42.07613 35.34418 1993 ft 188 kts 43°
2026-04-22 12:04 42.08657 35.35407 2040 ft 185 kts 24°
2026-04-22 12:05 42.09904 35.35858 2060 ft 186 kts
2026-04-22 12:05 42.11194 35.35703 2025 ft 187 kts 346°
2026-04-22 12:05 42.12369 35.34946 2010 ft 188 kts 326°
2026-04-22 12:05 42.13272 35.33682 2007 ft 191 kts 305°
2026-04-22 12:06 42.13796 35.32033 2002 ft 194 kts 284°
2026-04-22 12:06 42.13845 35.30237 2004 ft 196 kts 263°
2026-04-22 12:06 42.13406 35.28484 2001 ft 199 kts 244°
2026-04-22 12:06 42.12673 35.26911 1999 ft 199 kts 237°
2026-04-22 12:07 42.11879 35.25404 1984 ft 192 kts 234°
2026-04-22 12:07 42.11125 35.24034 1983 ft 175 kts 234°
2026-04-22 12:07 42.10407 35.22744 1974 ft 170 kts 234°
2026-04-22 12:07 42.09703 35.21471 1981 ft 170 kts 234°
2026-04-22 12:08 42.08992 35.20184 1983 ft 171 kts 234°
2026-04-22 12:08 42.08283 35.18898 1980 ft 171 kts 235°
2026-04-22 12:08 42.07584 35.17629 1793 ft 169 kts 235°
2026-04-22 12:08 42.06895 35.16380 1559 ft 164 kts 234°
2026-04-22 12:09 42.06244 35.15197 1319 ft 150 kts 234°
2026-04-22 12:09 42.05651 35.14122 1106 ft 139 kts 235°
2026-04-22 12:09 42.05073 35.13069 933 ft 139 kts 235°
2026-04-22 12:09 42.04498 35.12024 756 ft 139 kts 235°
2026-04-22 12:10 42.03920 35.10974 570 ft 140 kts 235°
2026-04-22 12:10 42.03342 35.09923 379 ft 140 kts 235°
2026-04-22 12:10 42.02767 35.08882 185 ft 138 kts 235°
2026-04-22 12:10 42.02197 35.07840 25 ft 136 kts 234°
2026-04-22 12:11 42.01723 35.06979 33 ft 76 kts 236°
2026-04-22 12:11 42.01529 35.06627 33 ft 29 kts 233°
2026-04-22 12:11 42.01455 35.06510 34 ft 10 kts 215°
2026-04-22 12:11 42.01448 35.06482 35 ft 5 kts 42°
2026-04-22 12:12 42.01478 35.06534 34 ft 8 kts 51°
2026-04-22 12:12 42.01525 35.06613 33 ft 12 kts 53°
2026-04-22 12:12 42.01580 35.06715 33 ft 14 kts 53°
2026-04-22 12:12 42.01642 35.06829 33 ft 15 kts 53°
2026-04-22 12:13 42.01708 35.06951 33 ft 16 kts 54°
2026-04-22 12:13 42.01778 35.07079 31 ft 18 kts 53°
2026-04-22 12:13 42.01855 35.07219 30 ft 19 kts 54°
2026-04-22 12:13 42.01937 35.07370 28 ft 20 kts 53°
2026-04-22 12:14 42.02021 35.07521 26 ft 20 kts 54°
2026-04-22 12:14 42.02094 35.07656 24 ft 9 kts 60°
2026-04-22 12:14 42.02070 35.07735 23 ft 10 kts 146°
2026-04-22 12:14 42.02004 35.07798 23 ft 11 kts 128°
2026-04-22 12:15 42.01976 35.07853 24 ft 4 kts 134°
2026-04-22 12:15 42.01953 35.07878 24 ft 0 kts 143°
2026-04-22 12:15 42.01952 35.07878 24 ft 0 kts 143°